Theta_e
315 316 316 317 317 316 315 315 315 315 315 316 317 318 318 318 318 318 318 318 318 317 312 311 307 307 313 312 310 310 307 309 308 311 312 312 312 311 311 310 310 312 312 312 312 311 311
314 314 315 316 317 317 316 315 315 315 316 317 317 317 317 318 318 318 318 318 317 315 312 311 307 311 313 314 311 308 308 309 309 311 312 312 312 312 311 311 310 311 312 311 310 311 311
313 314 314 315 316 318 318 316 316 316 316 317 317 316 317 317 317 317 318 318 317 315 313 310 310 312 309 311 311 307 308 309 309 310 312 312 312 313 312 312 311 311 310 309 310 311 311
313 313 314 315 315 316 316 316 316 316 316 316 316 316 316 317 317 317 317 319 317 315 315 311 311 312 310 308 308 307 308 309 308 310 311 311 311 312 312 310 309 310 309 308 309 311 311
313 313 314 314 315 315 315 315 315 316 316 316 316 316 317 317 317 316 317 319 317 313 316 311 312 311 310 308 308 307 309 308 309 310 311 311 311 311 310 309 309 311 310 309 309 311 311
314 314 314 314 315 315 315 315 315 315 315 315 315 316 318 317 317 316 318 319 316 315 316 313 313 313 309 309 308 307 308 308 309 308 311 310 307 308 308 308 310 311 309 308 307 308 310
315 314 314 314 314 314 314 314 314 314 314 315 317 318 319 317 317 316 318 317 312 315 311 313 311 309 309 307 309 309 309 309 309 309 308 309 306 308 309 309 309 308 308 307 305 306 308
317 317 316 316 316 316 316 317 317 317 317 318 319 319 318 317 318 316 315 307 307 309 312 311 307 306 307 308 309 309 308 307 308 308 308 307 309 310 309 308 308 307 306 306 305 307 309
319 320 320 320 320 319 318 318 319 318 318 319 319 318 318 318 317 315 312 308 308 309 311 313 306 307 308 309 309 309 307 308 308 307 308 308 309 309 309 308 309 309 309 307 308 308 306
322 322 323 323 322 322 322 321 321 321 320 319 319 319 319 320 316 314 311 309 308 309 311 314 310 310 310 310 312 310 309 306 307 309 308 307 307 308 307 307 308 308 309 310 310 307 305
322 323 324 324 324 324 323 322 322 322 323 323 321 318 319 319 319 313 312 308 308 309 318 312 309 308 309 310 310 311 309 309 309 309 308 312 309 308 310 310 308 308 308 309 309 307 306
315 317 319 321 321 321 322 321 322 323 322 322 322 322 320 319 316 315 311 307 309 315 316 316 310 311 311 312 311 311 311 308 308 308 307 307 307 308 308 309 309 308 308 307 306 306 306
310 313 314 315 317 318 319 319 319 320 320 319 320 321 321 320 316 315 312 311 318 317 316 319 313 311 312 314 314 311 312 312 314 315 313 310 309 308 308 308 308 307 306 306 305 306 311
307 308 309 311 312 313 315 316 316 317 317 317 318 321 321 320 319 315 314 319 325 320 321 314 311 312 316 317 315 312 312 313 310 311 310 309 311 308 307 308 309 309 305 304 303 309 311
306 306 307 308 308 309 311 313 313 313 315 316 317 319 318 319 317 313 316 321 322 320 320 319 316 320 320 318 315 311 310 311 311 309 312 309 308 307 308 308 307 307 308 307 308 307 304
303 304 304 305 306 306 307 309 312 312 312 313 316 315 313 315 312 310 316 323 321 318 315 315 321 320 322 318 317 313 311 310 311 308 306 308 308 307 308 307 307 308 306 306 305 304 305
305 304 303 303 303 304 305 306 310 311 312 313 314 313 308 309 308 311 317 319 318 317 313 316 319 321 321 322 317 314 315 311 307 308 306 306 305 306 308 307 306 308 307 306 305 304 303
304 304 304 303 303 304 304 304 307 310 311 312 311 316 306 305 311 311 315 313 314 316 313 313 313 317 320 320 320 318 317 313 306 306 308 306 305 306 307 306 305 305 306 305 305 305 303
304 304 303 303 303 303 304 304 304 309 310 311 311 307 305 305 312 310 309 310 310 313 313 313 313 314 316 318 318 317 312 307 306 306 308 307 307 307 308 306 305 306 305 304 304 303 306
303 304 304 303 302 301 303 304 303 305 309 310 305 307 306 305 305 309 311 311 312 309 310 310 311 310 312 314 314 316 313 309 305 306 310 309 308 307 311 308 306 307 306 305 307 308 308
301 302 303 303 302 303 302 302 304 303 306 309 306 305 304 306 307 307 309 310 310 311 307 308 309 310 312 314 313 314 312 312 310 308 309 309 308 307 308 307 307 308 307 306 308 308 309
301 301 302 302 303 303 302 302 303 303 304 308 308 307 304 302 304 306 307 307 308 309 308 308 310 309 309 312 311 312 312 310 308 306 308 306 309 306 307 306 306 307 306 306 307 307 307
300 301 302 301 302 302 302 303 302 303 303 306 308 305 305 306 306 306 305 306 306 307 306 307 308 309 310 309 308 309 308 308 308 309 309 309 309 309 310 305 305 305 305 305 305 305 306
300 300 301 301 300 300 300 300 302 303 302 304 306 305 306 306 306 306 304 305 306 306 306 306 306 307 305 304 304 304 303 303 307 309 308 308 310 308 307 305 308 303 300 302 303 303 303
299 300 300 300 300 300 298 299 300 302 302 303 304 305 305 306 305 303 303 303 303 304 306 305 304 303 301 304 307 307 306 304 305 307 307 308 308 308 309 307 305 304 301 299 303 301 298
298 298 299 299 300 299 298 299 299 300 302 302 303 304 304 305 305 304 304 304 304 304 302 304 299 297 302 305 306 306 307 303 302 302 299 306 307 308 307 308 307 300 295 293 296 299 293
297 298 298 299 299 300 299 299 299 299 302 302 303 302 302 302 302 303 305 305 303 303 303 302 300 300 300 304 306 306 306 302 303 302 302 304 303 306 306 308 304 299 293 294 300 299 291
296 297 297 298 299 299 299 298 298 299 302 302 302 301 301 302 301 299 302 302 302 303 304 300 301 299 300 304 305 306 305 302 301 299 300 301 303 302 303 304 303 291 293 297 293 289 288
296 295 296 297 298 299 299 299 298 298 300 303 301 299 299 299 298 297 298 300 303 303 303 298 301 299 301 303 301 300 303 298 298 300 295 299 299 299 300 300 290 289 293 290 288 288 288
Wind_Speed
3 2 3 3 5 6 8 9 10 11 12 14 16 17 19 21 23 24 24 25 27 19 14 14 9 7 3 4 1 7 13 11 7 5 6 3 5 2 1 3 3 0 2 4 3 4 4
4 2 1 1 1 3 5 7 8 9 10 12 15 17 19 22 24 25 23 26 26 15 10 12 8 4 3 1 2 10 13 8 10 8 8 6 2 1 2 2 1 2 3 7 6 4 3
6 4 3 3 2 1 2 4 5 7 9 11 13 16 19 21 23 24 23 26 24 12 11 8 4 4 6 1 3 12 12 4 7 6 3 4 3 1 2 4 4 2 5 6 3 4 4
8 7 6 5 3 2 2 3 4 6 8 10 13 16 18 21 24 25 24 25 18 5 14 5 4 2 3 2 5 12 13 1 6 4 3 3 3 1 0 4 5 4 3 4 3 5 1
12 10 9 7 6 4 4 5 5 6 7 9 11 13 16 19 23 24 25 24 15 1 12 3 3 3 3 4 5 11 11 7 9 4 3 3 2 2 5 3 4 5 2 3 8 4 2
14 13 11 10 8 8 7 8 8 8 8 10 11 12 15 18 21 23 25 13 9 2 10 3 4 3 3 4 9 10 9 8 3 8 3 4 5 3 4 5 2 4 4 4 5 3 4
17 15 14 12 11 10 11 10 11 11 11 11 12 13 15 16 19 20 26 6 9 5 13 2 4 3 3 9 1 3 6 8 2 2 3 3 5 2 4 3 3 3 4 6 3 7 4
20 18 17 16 14 13 13 12 13 12 12 12 13 14 15 15 17 15 16 7 1 2 5 4 4 3 4 5 3 3 9 3 4 2 2 5 1 1 1 2 3 3 5 5 7 3 2
22 21 19 18 17 16 15 15 14 14 13 13 13 13 14 15 9 8 11 6 2 1 2 4 2 2 3 3 2 4 4 1 2 1 1 3 4 2 1 2 4 3 4 3 5 6 5
25 24 23 22 21 19 18 18 17 16 15 13 11 12 12 14 3 7 1 6 4 1 4 4 1 2 1 1 3 0 2 1 1 1 2 5 3 2 2 4 5 4 2 2 5 5 2
11 19 25 23 22 22 22 22 19 18 16 14 12 10 7 8 8 3 3 4 3 2 4 3 0 1 2 2 4 0 1 2 1 1 4 4 1 2 3 3 1 5 4 4 1 0 4
2 3 7 11 13 11 12 13 15 14 14 13 12 10 6 5 3 3 3 4 0 5 5 1 0 0 3 1 2 1 2 2 1 1 2 6 2 2 3 1 2 3 4 5 4 2 2
12 7 6 5 7 8 6 5 5 5 5 6 9 11 10 7 2 1 4 3 4 4 1 2 2 1 1 3 2 2 2 3 1 5 4 4 2 1 2 1 2 4 5 4 5 3 4
12 13 12 11 8 8 7 8 9 7 6 5 3 8 8 9 6 3 1 3 4 4 6 0 2 1 4 1 3 3 1 4 1 2 1 2 6 4 2 2 2 2 5 4 5 2 5
9 11 10 10 11 11 12 10 10 10 10 5 4 8 7 9 9 9 3 3 6 5 3 4 0 2 2 2 3 2 4 4 3 7 5 3 5 1 2 1 3 2 2 3 1 0 2
11 13 12 12 11 11 10 9 8 10 9 6 5 5 4 9 13 6 2 8 5 5 4 3 9 7 6 4 2 4 5 5 4 3 2 2 4 2 1 1 1 3 3 2 2 1 4
11 10 11 13 13 13 12 9 7 8 8 7 4 1 1 13 14 2 3 5 5 4 5 7 6 5 7 4 10 5 5 3 6 4 3 4 4 4 0 5 7 2 2 2 3 5 4
12 13 11 13 13 14 13 13 10 8 9 10 3 3 5 14 2 2 4 5 1 4 1 5 2 6 7 7 2 5 5 7 5 7 6 6 4 5 10 4 3 3 8 6 4 4 3
15 14 13 12 13 14 14 11 11 10 15 7 1 1 6 3 4 3 2 3 2 2 5 4 5 6 4 4 4 10 5 1 4 7 7 3 2 2 7 4 1 4 5 5 2 2 7
16 15 17 18 20 19 16 14 11 15 15 12 2 2 2 2 1 1 3 5 5 4 3 4 2 3 2 5 7 4 3 2 2 2 8 5 3 6 8 2 2 4 3 4 4 3 4
19 17 16 18 19 21 21 18 16 15 15 13 3 4 4 5 6 6 2 1 4 5 5 5 3 8 8 5 2 5 4 2 1 2 4 6 7 6 13 10 9 15 11 10 14 15 10
20 21 19 18 16 17 20 21 20 19 17 8 3 4 2 3 4 10 13 7 20 11 7 5 6 7 7 7 7 4 3 4 6 3 10 4 4 5 9 10 12 18 15 15 18 22 18
20 22 21 21 20 19 18 20 22 23 21 8 9 4 3 7 6 7 7 15 6 7 7 13 8 7 8 11 10 9 7 6 6 6 4 4 4 5 11 4 4 8 13 15 8 7 10
22 22 25 22 21 20 22 24 22 27 28 19 8 5 4 7 9 13 9 13 14 12 11 2 3 4 1 3 2 3 2 6 9 13 11 5 4 5 3 2 6 3 2 4 7 8 7
24 23 23 25 25 23 22 23 26 27 30 28 20 10 4 4 6 8 10 7 10 9 11 10 5 1 5 4 1 4 2 3 7 14 14 13 5 3 3 5 7 8 4 4 5 5 1
25 24 24 25 27 25 25 24 24 28 32 29 27 23 3 5 14 8 9 8 7 6 0 4 1 1 2 2 2 4 5 5 4 2 4 10 10 6 2 4 6 3 3 1 1 5 2
23 24 25 26 26 26 25 24 25 27 31 31 17 26 6 2 4 6 5 7 4 5 3 4 5 3 1 4 5 6 7 6 6 6 5 4 2 12 12 7 6 4 4 2 4 5 2
25 23 24 24 25 27 24 23 23 24 26 32 18 24 16 2 3 4 6 6 3 6 6 5 3 1 3 5 4 4 4 5 4 5 8 8 8 4 5 6 9 7 4 7 3 2 5
26 26 25 25 26 26 24 23 22 23 22 19 9 18 20 4 2 4 7 9 12 7 3 6 2 4 5 4 3 2 3 2 3 4 2 3 7 5 9 6 1 4 2 3 6 5 5
Wind_Direction
152 121 91 69 58 55 48 46 41 39 37 30 24 20 16 11 6 2 357 352 348 352 350 348 349 353 111 56 199 345 342 351 2 3 24 15 51 359 42 329 333 98 313 317 319 260 252
211 199 195 153 45 36 39 38 29 25 22 21 16 12 9 6 1 357 354 347 344 352 355 354 357 12 64 86 358 353 347 360 17 21 18 31 121 160 242 254 201 279 262 276 273 244 234
223 225 229 240 237 282 357 9 14 8 8 6 6 4 3 0 356 353 353 346 342 349 357 347 35 93 70 84 335 360 355 3 4 6 356 17 359 9 336 328 340 296 317 323 245 218 217
226 234 233 239 246 266 303 326 334 348 354 353 355 356 358 356 354 351 350 344 342 338 3 352 27 84 92 35 352 350 2 311 341 2 341 347 352 317 178 316 1 333 40 353 274 143 236
230 227 234 239 247 262 279 294 307 323 334 340 344 348 353 354 354 352 352 341 342 14 10 47 39 8 39 349 2 348 356 346 335 355 332 327 8 36 3 51 7 5 275 282 319 204 121
239 236 234 240 248 262 272 284 295 304 312 319 326 339 346 354 355 354 352 338 349 89 10 84 55 61 30 318 323 337 355 357 352 333 13 38 40 41 28 56 273 302 322 294 253 290 230
247 245 244 242 247 255 265 272 280 289 300 309 319 330 340 348 353 1 1 353 10 1 39 353 300 279 309 318 105 8 349 333 4 36 16 2 51 249 237 208 251 265 252 256 271 269 254
250 252 253 251 249 252 260 268 275 283 292 300 311 320 332 341 345 2 24 67 88 307 315 311 275 276 285 328 355 325 358 51 26 334 8 12 276 249 261 249 270 271 304 288 288 352 272
251 252 255 259 259 257 257 263 271 277 282 292 303 313 323 337 337 3 46 57 2 336 67 308 262 250 273 349 303 305 22 359 74 314 32 199 213 200 286 319 314 254 224 257 248 325 278
249 251 251 253 258 262 264 265 267 269 275 281 290 304 323 339 346 349 49 17 21 347 61 285 272 304 268 348 294 224 21 54 256 280 317 249 292 221 247 234 164 287 219 249 296 30 244
208 232 245 249 255 256 258 262 264 265 267 272 277 285 314 332 315 318 331 350 360 105 8 270 328 287 308 328 328 317 17 30 244 245 72 269 217 261 292 273 113 249 338 306 326 28 35
235 219 209 214 221 225 240 256 252 251 252 254 259 268 255 292 256 275 321 329 141 44 260 326 349 313 1 54 291 19 351 31 231 265 216 253 319 192 204 36 59 322 328 12 42 59 15
305 292 291 254 236 232 219 221 238 237 250 257 243 227 222 226 234 219 323 345 36 145 309 209 197 192 41 247 241 170 312 298 209 354 346 310 234 212 167 166 37 76 58 323 345 3 230
315 299 291 293 282 277 256 253 255 247 251 274 251 204 212 212 215 214 321 51 182 226 245 129 160 238 209 193 219 192 302 301 190 140 140 153 324 188 175 184 163 169 147 154 242 264 279
302 304 307 295 292 288 283 270 260 261 255 248 246 190 194 209 217 182 126 202 202 201 214 169 55 249 246 224 208 211 219 222 241 175 180 191 274 251 141 92 132 140 178 170 115 321 20
274 283 291 290 295 294 286 275 266 258 260 241 205 190 190 189 175 156 249 227 207 205 144 157 191 185 199 198 215 204 203 193 214 175 175 204 296 264 206 145 171 177 160 65 8 251 267
251 268 273 283 293 286 292 284 254 245 242 215 186 202 163 168 156 140 202 230 220 231 166 193 210 235 223 204 206 213 226 251 177 154 151 150 173 283 168 206 188 108 233 191 140 156 189
257 248 251 266 271 277 279 288 262 228 218 197 201 214 148 148 161 209 196 198 223 225 135 229 213 252 230 180 239 233 239 218 162 149 171 192 179 234 225 250 216 200 199 173 153 218 208
255 257 251 251 266 272 263 269 264 234 212 159 210 99 173 125 206 189 205 236 218 203 211 187 228 207 203 174 248 232 226 214 162 166 158 149 235 329 319 6 349 207 201 189 146 99 217
252 252 255 255 254 262 261 256 264 256 213 195 131 183 168 220 1 151 167 217 213 191 263 193 239 128 150 228 226 254 238 268 245 190 137 106 207 205 235 183 132 233 193 207 180 209 255
254 255 258 268 261 253 248 244 235 247 238 212 179 228 192 189 216 220 202 190 178 207 219 195 199 220 193 233 228 234 251 298 342 260 214 166 227 230 251 255 260 262 238 225 234 244 246
264 251 257 264 266 256 250 243 230 232 233 249 195 161 204 193 151 201 212 214 241 231 158 221 215 209 215 225 212 233 202 190 218 185 185 181 240 196 271 241 241 257 256 241 240 249 250
264 259 253 251 256 261 262 253 240 227 226 224 204 185 164 181 176 173 217 225 236 196 248 240 203 221 221 235 232 236 225 229 205 171 212 217 192 169 266 202 252 279 248 224 232 231 234
263 263 252 247 250 255 259 259 254 233 226 227 227 159 199 222 196 208 190 199 214 215 222 297 174 200 230 86 88 14 301 253 236 222 196 201 211 184 232 100 244 277 178 196 213 240 234
263 262 260 254 248 255 256 259 261 245 233 229 234 215 218 211 195 219 207 189 213 228 225 227 232 181 140 88 252 257 261 288 234 234 212 208 208 239 223 201 308 288 221 199 188 265 228
261 262 262 258 250 250 256 260 260 255 243 235 236 228 217 231 221 207 206 196 194 188 71 196 147 285 123 141 200 226 235 216 244 274 338 221 221 230 186 231 234 205 150 125 246 266 21
262 264 260 259 255 248 254 262 266 258 251 228 230 227 207 277 228 151 193 201 152 166 191 130 170 193 213 180 218 224 236 196 204 195 173 159 198 228 241 256 270 204 160 171 148 268 85
262 263 264 260 256 248 253 259 266 262 254 225 223 208 190 249 218 227 164 159 109 197 200 145 128 179 165 214 205 188 214 218 201 186 171 173 177 191 214 232 260 154 102 176 176 116 130
259 262 267 262 252 248 247 256 262 262 254 231 225 223 213 199 245 250 233 213 193 193 152 197 193 173 177 201 193 203 215 183 180 238 118 228 191 185 189 211 178 190 193 164 155 152 166